Harlan, KY

8:52 PM EDT on October 17, 2017 (GMT -0400)
Harlan

Weather History for KI35 - June, 2013

Change the Weather History Date:

Thursday, June 27, 2013

  Actual Average (KLOZ) Record (KLOZ)
Temperature  
Mean Temperature 73 °F -  
Max Temperature 82 °F 84 °F 95 °F (1978)
Min Temperature 64 °F 61 °F 48 °F (1961)
Cooling Degree Days 8    
Growing Degree Days 23 (Base 50)    
Moisture  
Dew Point 67 °F    
Average Humidity 85    
Maximum Humidity 100    
Minimum Humidity 62    
Precipitation  
Precipitation 0.00 in - - ()
Sea Level Pressure  
Sea Level Pressure 29.88 in    
Wind  
Wind Speed 4 mph (West)    
Max Wind Speed 30 mph    
Max Gust Speed 46 mph    
Visibility 8 miles    
Events      
Averages and records for this station are not official NWS values.
T = Trace of Precipitation, MM = Missing Value Source: NWS Daily Summary

Daily Weather History Graph

Daily Weather History Graph

Search for Another Location

Airport or City:

Trip Planner

Search our weather history database for the weather conditions in past years. The results will help you decide how hot, cold, wet, or windy it might be!

Date:

Astronomy

Jun. 27, 2013 Rise Set
Actual Time 6:16 AM EDT 8:56 PM EDT
Civil Twilight 5:45 AM EDT 9:27 PM EDT
Nautical Twilight 5:07 AM EDT 10:05 PM EDT
Astronomical Twilight 4:24 AM EDT 10:48 PM EDT
Moon No Moon Rise 11:08 AM EDT (6/27)
Length of Visible Light 15h 41m
Length of Day
14h 40m
Waning Gibbous, 76% of the Moon is Illuminated
Jun 27
Waning Gibbous
Jun 30
Last Quarter
Jul 8
New
Jul 15
First Quarter
Jul 22
Full

Hourly Weather History & Observations

Time (EDT) Temp. Heat Index Dew Point Humidity Pressure Visibility Wind Dir Wind Speed Gust Speed Precip Events Conditions
12:15 AM 71.6 °F - 68.0 °F 88% 29.91 in 10.0 mi Calm Calm - N/A   Scattered Clouds
12:35 AM 73.4 °F - 68.0 °F 83% 29.89 in 10.0 mi South 4.6 mph - N/A   Scattered Clouds
12:55 AM 77.0 °F - 68.0 °F 74% 29.90 in 10.0 mi Calm Calm - N/A   Mostly Cloudy
1:15 AM 77.0 °F - 68.0 °F 74% 29.88 in 10.0 mi SSE 4.6 mph - N/A   Overcast
1:35 AM 77.0 °F - 68.0 °F 74% 29.85 in 10.0 mi Calm Calm - N/A   Overcast
1:55 AM 77.0 °F - 68.0 °F 74% 29.88 in 10.0 mi WSW 29.9 mph 46.0 mph N/A   Overcast
2:15 AM 69.8 °F - 64.4 °F 83% 29.89 in 10.0 mi West 12.7 mph 23.0 mph N/A   Overcast
2:35 AM 69.8 °F - 64.4 °F 83% 29.90 in 10.0 mi West 11.5 mph - N/A   Overcast
2:55 AM 69.8 °F - 62.6 °F 78% 29.90 in 10.0 mi West 10.4 mph 16.1 mph N/A   Overcast
3:15 AM 68.0 °F - 62.6 °F 83% 29.90 in 10.0 mi West 6.9 mph - N/A   Overcast
3:35 AM 68.0 °F - 62.6 °F 83% 29.89 in 10.0 mi NW 6.9 mph - N/A   Overcast
3:55 AM 68.0 °F - 62.6 °F 83% 29.89 in 10.0 mi West 3.5 mph - N/A   Mostly Cloudy
4:15 AM 66.2 °F - 62.6 °F 88% 29.90 in 10.0 mi West 3.5 mph - N/A   Mostly Cloudy
4:35 AM 66.2 °F - 62.6 °F 88% 29.90 in 10.0 mi North 5.8 mph - N/A   Mostly Cloudy
4:55 AM 66.2 °F - 64.4 °F 94% 29.90 in 10.0 mi North 4.6 mph - N/A   Overcast
5:15 AM 64.4 °F - 62.6 °F 94% 29.90 in 10.0 mi Calm Calm - N/A   Overcast
5:35 AM 64.4 °F - 62.6 °F 94% 29.91 in 10.0 mi Calm Calm - N/A   Overcast
5:55 AM 64.4 °F - 64.4 °F 100% 29.90 in 7.0 mi North 3.5 mph - N/A   Overcast
6:15 AM 64.4 °F - 62.6 °F 94% 29.90 in 3.0 mi Calm Calm - N/A   Overcast
6:35 AM 64.4 °F - 62.6 °F 94% 29.90 in 1.5 mi Calm Calm - N/A   Overcast
6:55 AM 64.4 °F - 62.6 °F 94% 29.92 in 1.0 mi NNE 4.6 mph - N/A   Overcast
7:35 AM 64.4 °F - 62.6 °F 94% 29.91 in 3.0 mi Calm Calm - N/A   Overcast
7:55 AM 64.4 °F - 62.6 °F 94% 29.91 in 10.0 mi Calm Calm - N/A   Overcast
8:15 AM 64.4 °F - 62.6 °F 94% 29.90 in 5.0 mi Calm Calm - N/A   Overcast
8:35 AM 64.4 °F - 62.6 °F 94% 29.91 in 10.0 mi Calm Calm - N/A   Overcast
8:55 AM 64.4 °F - 62.6 °F 94% 29.91 in 7.0 mi Calm Calm - N/A   Overcast
9:15 AM 64.4 °F - 62.6 °F 94% 29.91 in 5.0 mi Calm Calm - N/A   Overcast
9:35 AM 66.2 °F - 64.4 °F 94% 29.90 in 10.0 mi Calm Calm - N/A   Overcast
9:55 AM 64.4 °F - 62.6 °F 94% 29.91 in 10.0 mi Calm Calm - N/A   Overcast
10:15 AM 64.4 °F - 62.6 °F 94% 29.90 in 3.0 mi Calm Calm - N/A   Overcast
10:35 AM 66.2 °F - 64.4 °F 94% 29.90 in 2.5 mi Calm Calm - N/A   Overcast
10:55 AM 66.2 °F - 64.4 °F 94% 29.90 in 2.5 mi Calm Calm - N/A   Overcast
11:15 AM 68.0 °F - 64.4 °F 88% 29.91 in 7.0 mi Calm Calm - N/A   Overcast
11:35 AM 68.0 °F - 64.4 °F 88% 29.91 in 10.0 mi Calm Calm - N/A   Overcast
11:55 AM 68.0 °F - 64.4 °F 88% 29.90 in 5.0 mi Calm Calm - N/A   Overcast
12:15 PM 68.0 °F - 64.4 °F 88% 29.90 in 7.0 mi Calm Calm - N/A   Overcast
12:35 PM 68.0 °F - 66.2 °F 94% 29.90 in 3.0 mi Calm Calm - N/A   Overcast
12:55 PM 69.8 °F - 68.0 °F 94% 29.90 in 5.0 mi West 3.5 mph - N/A   Overcast
1:15 PM 71.6 °F - 68.0 °F 88% 29.90 in 10.0 mi WSW 5.8 mph - N/A   Overcast
1:35 PM 73.4 °F - 69.8 °F 88% 29.90 in 10.0 mi SW 5.8 mph - N/A   Overcast
1:55 PM 77.0 °F - 69.8 °F 78% 29.89 in 10.0 mi SW 6.9 mph - N/A   Overcast
2:15 PM 78.8 °F - 69.8 °F 74% 29.89 in 10.0 mi West 4.6 mph - N/A   Overcast
2:35 PM 78.8 °F - 68.0 °F 69% 29.88 in 10.0 mi West 6.9 mph - N/A   Overcast
2:55 PM 78.8 °F - 69.8 °F 74% 29.89 in 10.0 mi West 5.8 mph - N/A   Overcast
3:15 PM 78.8 °F - 69.8 °F 74% 29.88 in 10.0 mi West 4.6 mph - N/A   Overcast
3:35 PM 80.6 °F 83.9 °F 69.8 °F 70% 29.87 in 10.0 mi WSW 5.8 mph - N/A   Overcast
3:55 PM 80.6 °F 83.2 °F 68.0 °F 65% 29.88 in 10.0 mi West 8.1 mph - N/A   Mostly Cloudy
4:15 PM 82.4 °F 86.3 °F 69.8 °F 66% 29.86 in 10.0 mi WNW 6.9 mph - N/A   Scattered Clouds
4:35 PM 82.4 °F 85.4 °F 68.0 °F 62% 29.85 in 5.0 mi WNW 8.1 mph - N/A   Scattered Clouds
4:55 PM 82.4 °F 86.3 °F 69.8 °F 66% 29.84 in 10.0 mi WSW 3.5 mph - N/A   Mostly Cloudy
5:15 PM 80.6 °F 83.9 °F 69.8 °F 70% 29.84 in 10.0 mi North - - N/A   Mostly Cloudy
5:35 PM 78.8 °F - 69.8 °F 74% 29.84 in 10.0 mi West 3.5 mph - N/A   Overcast
6:15 PM 78.8 °F - 69.8 °F 74% 29.84 in 10.0 mi Calm Calm - N/A   Mostly Cloudy
6:35 PM 78.8 °F - 69.8 °F 74% 29.83 in 10.0 mi WSW 3.5 mph - N/A   Mostly Cloudy
6:55 PM 77.0 °F - 71.6 °F 83% 29.83 in 7.0 mi NW 4.6 mph - N/A   Mostly Cloudy
7:15 PM 77.0 °F - 71.6 °F 83% 29.83 in 10.0 mi West 4.6 mph - N/A   Scattered Clouds
7:35 PM 77.0 °F - 69.8 °F 78% 29.83 in 7.0 mi West 3.5 mph - N/A   Scattered Clouds
7:55 PM 77.0 °F - 69.8 °F 78% 29.83 in 10.0 mi West 3.5 mph - N/A   Scattered Clouds
8:15 PM 77.0 °F - 69.8 °F 78% 29.84 in 10.0 mi West 3.5 mph - N/A   Scattered Clouds
8:35 PM 77.0 °F - 69.8 °F 78% 29.83 in 10.0 mi WNW 3.5 mph - N/A   Scattered Clouds
8:55 PM 75.2 °F - 69.8 °F 83% 29.84 in 10.0 mi Calm Calm - N/A   Clear
9:15 PM 73.4 °F - 69.8 °F 88% 29.84 in 7.0 mi Calm Calm - N/A   Clear
9:35 PM 71.6 °F - 68.0 °F 88% 29.85 in 7.0 mi Calm Calm - N/A   Clear
9:55 PM 71.6 °F - 68.0 °F 88% 29.86 in 7.0 mi SSW 3.5 mph - N/A   Clear
10:15 PM 71.6 °F - 68.0 °F 88% 29.87 in 5.0 mi NNE 5.8 mph - N/A   Clear
10:35 PM 69.8 °F - 68.0 °F 94% 29.88 in 4.0 mi East 8.1 mph - N/A   Scattered Clouds
10:55 PM 69.8 °F - 68.0 °F 94% 29.88 in 3.0 mi North - - N/A   Scattered Clouds
11:15 PM 69.8 °F - 68.0 °F 94% 29.87 in 5.0 mi North - - N/A   Scattered Clouds
11:35 PM 69.8 °F - 68.0 °F 94% 29.87 in 5.0 mi North - - N/A   Clear
11:55 PM 69.8 °F - 68.0 °F 94% 29.87 in 4.0 mi North - - N/A   Scattered Clouds